Time,TemperatureF,DewpointF,PressureIn,WindDirection,WindDirectionDegrees,WindSpeedMPH,WindSpeedGustMPH,Humidity,HourlyPrecipIn,Conditions,Clouds,dailyrainin,SoftwareType,DateUTC
2013-02-23 00:03:00,41.9,36.5,32.48,South,180,0.0,0.0,81,-99.99,,,-99.99,meteohub,2013-02-23 08:03:00,
2013-02-23 00:08:00,41.5,36.1,32.48,South,180,1.0,0.0,81,-99.99,,,-99.99,meteohub,2013-02-23 08:08:00,
2013-02-23 00:13:00,41.5,36.5,32.48,South,180,1.0,0.0,82,-99.99,,,-99.99,meteohub,2013-02-23 08:13:00,
2013-02-23 00:18:00,41.9,36.5,32.48,South,180,1.0,1.0,81,-99.99,,,-99.99,meteohub,2013-02-23 08:18:00,
2013-02-23 00:23:00,41.9,36.1,32.48,South,180,1.0,1.0,80,-99.99,,,-99.99,meteohub,2013-02-23 08:23:00,
2013-02-23 00:28:00,41.9,36.1,32.48,South,180,1.0,1.0,80,-99.99,,,-99.99,meteohub,2013-02-23 08:28:00,
2013-02-23 00:33:00,42.1,36.3,32.47,South,180,2.0,2.0,80,-99.99,,,-99.99,meteohub,2013-02-23 08:33:00,
2013-02-23 00:39:00,42.1,36.0,32.47,South,180,1.0,2.0,79,-99.99,,,-99.99,meteohub,2013-02-23 08:39:00,
2013-02-23 00:44:00,42.1,35.8,32.47,South,180,1.0,2.0,78,-99.99,,,-99.99,meteohub,2013-02-23 08:44:00,
2013-02-23 00:49:00,41.9,35.6,32.47,South,180,0.0,2.0,78,-99.99,,,-99.99,meteohub,2013-02-23 08:49:00,
2013-02-23 00:54:00,41.7,35.4,32.47,South,180,1.0,2.0,78,-99.99,,,-99.99,meteohub,2013-02-23 08:54:00,
2013-02-23 00:59:00,41.7,35.4,32.47,South,180,1.0,1.0,78,-99.99,,,-99.99,meteohub,2013-02-23 08:59:00,
2013-02-23 01:04:00,41.5,35.2,32.46,South,180,0.0,1.0,78,-99.99,,,-99.99,meteohub,2013-02-23 09:04:00,
2013-02-23 01:09:00,41.5,35.2,32.46,South,180,0.0,1.0,78,-99.99,,,-99.99,meteohub,2013-02-23 09:09:00,
2013-02-23 01:14:00,41.4,35.1,32.46,South,180,0.0,1.0,78,-99.99,,,-99.99,meteohub,2013-02-23 09:14:00,
2013-02-23 01:19:00,41.4,35.4,32.46,South,180,1.0,1.0,79,-99.99,,,-99.99,meteohub,2013-02-23 09:19:00,
2013-02-23 01:24:00,41.5,35.8,32.46,South,180,1.0,1.0,80,-99.99,,,-99.99,meteohub,2013-02-23 09:24:00,
2013-02-23 01:30:00,41.4,35.4,32.46,South,180,1.0,1.0,79,-99.99,,,-99.99,meteohub,2013-02-23 09:30:00,
2013-02-23 01:35:00,41.4,35.4,32.46,South,180,0.0,1.0,79,-99.99,,,-99.99,meteohub,2013-02-23 09:35:00,
2013-02-23 01:40:00,41.2,35.2,32.46,South,180,0.0,1.0,79,-99.99,,,-99.99,meteohub,2013-02-23 09:40:00,
2013-02-23 01:45:00,40.8,35.1,32.46,South,180,0.0,1.0,80,-99.99,,,-99.99,meteohub,2013-02-23 09:45:00,
2013-02-23 01:50:00,40.5,35.1,32.46,South,180,0.0,0.0,81,-99.99,,,-99.99,meteohub,2013-02-23 09:50:00,
2013-02-23 01:55:00,40.3,34.9,32.45,South,180,0.0,0.0,81,-99.99,,,-99.99,meteohub,2013-02-23 09:55:00,
2013-02-23 02:00:00,40.1,35.1,32.45,South,180,0.0,0.0,82,-99.99,,,-99.99,meteohub,2013-02-23 10:00:00,
2013-02-23 02:05:00,40.1,35.1,32.45,South,180,0.0,0.0,82,-99.99,,,-99.99,meteohub,2013-02-23 10:05:00,
2013-02-23 02:10:00,40.5,35.8,32.45,South,180,0.0,0.0,83,-99.99,,,-99.99,meteohub,2013-02-23 10:10:00,
2013-02-23 02:16:00,40.3,35.2,32.45,South,180,1.0,0.0,82,-99.99,,,-99.99,meteohub,2013-02-23 10:16:00,
2013-02-23 02:21:00,40.1,34.7,32.45,South,180,0.0,1.0,81,-99.99,,,-99.99,meteohub,2013-02-23 10:21:00,
2013-02-23 02:26:00,39.9,34.5,32.45,South,180,0.0,1.0,81,-99.99,,,-99.99,meteohub,2013-02-23 10:26:00,
2013-02-23 02:31:00,39.9,34.3,32.45,South,180,0.0,1.0,80,-99.99,,,-99.99,meteohub,2013-02-23 10:31:00,
2013-02-23 02:39:00,40.3,34.3,32.44,South,180,0.0,1.0,79,-99.99,,,-99.99,meteohub,2013-02-23 10:39:00,
2013-02-23 02:44:00,40.3,34.3,32.44,South,180,0.0,1.0,79,-99.99,,,-99.99,meteohub,2013-02-23 10:44:00,
2013-02-23 02:49:00,40.5,34.2,32.43,South,180,1.0,1.0,78,-99.99,,,-99.99,meteohub,2013-02-23 10:49:00,
2013-02-23 02:54:00,40.3,33.6,32.43,South,180,1.0,1.0,77,-99.99,,,-99.99,meteohub,2013-02-23 10:54:00,
2013-02-23 02:59:00,40.3,33.6,32.43,South,180,0.0,1.0,77,-99.99,,,-99.99,meteohub,2013-02-23 10:59:00,
2013-02-23 03:04:00,40.5,33.8,32.43,South,180,0.0,1.0,77,-99.99,,,-99.99,meteohub,2013-02-23 11:04:00,
2013-02-23 03:10:00,40.5,33.8,32.43,South,180,0.0,1.0,77,-99.99,,,-99.99,meteohub,2013-02-23 11:10:00,
2013-02-23 03:15:00,40.6,34.0,32.42,South,180,0.0,0.0,77,-99.99,,,-99.99,meteohub,2013-02-23 11:15:00,
2013-02-23 03:20:00,40.5,33.8,32.43,South,180,1.0,0.0,77,-99.99,,,-99.99,meteohub,2013-02-23 11:20:00,
2013-02-23 03:25:00,40.5,34.2,32.42,South,180,0.0,1.0,78,-99.99,,,-99.99,meteohub,2013-02-23 11:25:00,
2013-02-23 03:30:00,40.8,34.5,32.42,South,180,0.0,1.0,78,-99.99,,,-99.99,meteohub,2013-02-23 11:30:00,
2013-02-23 03:35:00,41.2,34.9,32.42,South,180,0.0,0.0,78,-99.99,,,-99.99,meteohub,2013-02-23 11:35:00,
2013-02-23 03:40:00,41.2,34.5,32.42,South,180,0.0,0.0,77,-99.99,,,-99.99,meteohub,2013-02-23 11:40:00,
2013-02-23 03:45:00,41.0,34.3,32.42,South,180,0.0,0.0,77,-99.99,,,-99.99,meteohub,2013-02-23 11:45:00,
2013-02-23 03:50:00,41.0,34.3,32.42,South,180,0.0,0.0,77,-99.99,,,-99.99,meteohub,2013-02-23 11:50:00,
2013-02-23 03:55:00,41.0,34.3,32.42,South,180,0.0,0.0,77,-99.99,,,-99.99,meteohub,2013-02-23 11:55:00,
2013-02-23 04:01:00,41.0,34.3,32.42,South,180,0.0,0.0,77,-99.99,,,-99.99,meteohub,2013-02-23 12:01:00,
2013-02-23 04:06:00,41.0,34.3,32.42,South,180,0.0,0.0,77,-99.99,,,-99.99,meteohub,2013-02-23 12:06:00,
2013-02-23 04:11:00,40.3,33.6,32.42,South,180,0.0,0.0,77,-99.99,,,-99.99,meteohub,2013-02-23 12:11:00,
2013-02-23 04:16:00,40.3,34.0,32.42,South,180,0.0,0.0,78,-99.99,,,-99.99,meteohub,2013-02-23 12:16:00,
2013-02-23 04:21:00,40.5,33.8,32.42,South,180,0.0,0.0,77,-99.99,,,-99.99,meteohub,2013-02-23 12:21:00,
2013-02-23 04:26:00,40.8,34.2,32.42,South,180,0.0,0.0,77,-99.99,,,-99.99,meteohub,2013-02-23 12:26:00,
2013-02-23 04:40:00,39.7,32.7,32.43,South,180,0.0,0.0,76,-99.99,,,-99.99,meteohub,2013-02-23 12:40:00,
2013-02-23 04:45:00,39.2,32.4,32.43,South,180,0.0,0.0,76,-99.99,,,-99.99,meteohub,2013-02-23 12:45:00,
2013-02-23 04:50:00,39.0,32.7,32.43,South,180,0.0,1.0,78,-99.99,,,-99.99,meteohub,2013-02-23 12:50:00,
2013-02-23 04:55:00,39.0,32.7,32.42,South,180,0.0,1.0,78,-99.99,,,-99.99,meteohub,2013-02-23 12:55:00,
2013-02-23 05:01:00,38.7,32.0,32.43,South,180,0.0,1.0,77,-99.99,,,-99.99,meteohub,2013-02-23 13:01:00,
2013-02-23 05:06:00,38.7,32.0,32.43,South,180,0.0,1.0,77,-99.99,,,-99.99,meteohub,2013-02-23 13:06:00,
2013-02-23 05:11:00,38.8,32.0,32.43,South,180,0.0,1.0,76,-99.99,,,-99.99,meteohub,2013-02-23 13:11:00,
2013-02-23 05:16:00,38.7,31.8,32.43,South,180,0.0,1.0,76,-99.99,,,-99.99,meteohub,2013-02-23 13:16:00,
2013-02-23 05:21:00,39.0,32.2,32.43,South,180,0.0,0.0,76,-99.99,,,-99.99,meteohub,2013-02-23 13:21:00,
2013-02-23 05:27:00,39.2,31.6,32.43,South,180,0.0,1.0,74,-99.99,,,-99.99,meteohub,2013-02-23 13:27:00,
2013-02-23 05:32:00,39.2,31.6,32.42,South,180,1.0,1.0,74,-99.99,,,-99.99,meteohub,2013-02-23 13:32:00,
2013-02-23 05:37:00,39.4,31.8,32.42,South,180,2.0,2.0,74,-99.99,,,-99.99,meteohub,2013-02-23 13:37:00,
2013-02-23 05:42:00,39.7,31.8,32.41,South,180,0.0,2.0,73,-99.99,,,-99.99,meteohub,2013-02-23 13:42:00,
2013-02-23 05:47:00,39.7,31.5,32.41,South,180,0.0,2.0,72,-99.99,,,-99.99,meteohub,2013-02-23 13:47:00,
2013-02-23 05:57:00,39.6,31.6,32.41,South,180,0.0,2.0,73,-99.99,,,-99.99,meteohub,2013-02-23 13:57:00,
2013-02-23 06:03:00,39.4,31.5,32.41,South,180,0.0,0.0,73,-99.99,,,-99.99,meteohub,2013-02-23 14:03:00,
2013-02-23 06:08:00,39.4,31.5,32.41,South,180,0.0,0.0,73,-99.99,,,-99.99,meteohub,2013-02-23 14:08:00,
2013-02-23 06:14:00,38.5,31.6,32.41,South,180,0.0,0.0,76,-99.99,,,-99.99,meteohub,2013-02-23 14:14:00,
2013-02-23 06:19:00,38.8,32.2,32.41,South,180,0.0,0.0,77,-99.99,,,-99.99,meteohub,2013-02-23 14:19:00,
2013-02-23 06:24:00,39.7,32.7,32.41,South,180,0.0,0.0,76,-99.99,,,-99.99,meteohub,2013-02-23 14:24:00,
2013-02-23 06:29:00,39.6,32.4,32.41,South,180,0.0,2.0,75,-99.99,,,-99.99,meteohub,2013-02-23 14:29:00,
2013-02-23 06:35:00,39.0,32.2,32.41,South,180,0.0,2.0,76,-99.99,,,-99.99,meteohub,2013-02-23 14:35:00,
2013-02-23 06:40:00,39.0,32.4,32.42,South,180,1.0,2.0,77,-99.99,,,-99.99,meteohub,2013-02-23 14:40:00,
2013-02-23 06:45:00,39.6,32.9,32.41,South,180,0.0,2.0,77,-99.99,,,-99.99,meteohub,2013-02-23 14:45:00,
2013-02-23 06:50:00,39.6,32.9,32.41,South,180,1.0,2.0,77,-99.99,,,-99.99,meteohub,2013-02-23 14:50:00,
2013-02-23 06:55:00,40.3,33.3,32.42,South,180,1.0,2.0,76,-99.99,,,-99.99,meteohub,2013-02-23 14:55:00,
2013-02-23 07:00:00,41.2,33.4,32.41,South,180,1.0,1.0,74,-99.99,,,-99.99,meteohub,2013-02-23 15:00:00,
2013-02-23 07:05:00,42.3,33.8,32.42,South,180,1.0,2.0,72,-99.99,,,-99.99,meteohub,2013-02-23 15:05:00,
2013-02-23 07:10:00,43.5,34.0,32.42,South,180,0.0,2.0,69,-99.99,,,-99.99,meteohub,2013-02-23 15:10:00,
2013-02-23 07:15:00,44.8,33.8,32.42,South,180,0.0,2.0,65,-99.99,,,-99.99,meteohub,2013-02-23 15:15:00,
2013-02-23 07:20:00,45.5,33.3,32.42,South,180,0.0,2.0,62,-99.99,,,-99.99,meteohub,2013-02-23 15:20:00,
2013-02-23 07:25:00,46.0,33.8,32.43,South,180,0.0,2.0,62,-99.99,,,-99.99,meteohub,2013-02-23 15:25:00,
2013-02-23 07:30:00,47.1,34.3,32.43,South,180,1.0,1.0,61,-99.99,,,-99.99,meteohub,2013-02-23 15:30:00,
2013-02-23 07:35:00,47.7,34.0,32.43,South,180,0.0,1.0,59,-99.99,,,-99.99,meteohub,2013-02-23 15:35:00,
2013-02-23 07:40:00,48.6,33.6,32.43,South,180,1.0,1.0,56,-99.99,,,-99.99,meteohub,2013-02-23 15:40:00,
2013-02-23 07:46:00,48.9,34.0,32.43,South,180,1.0,1.0,56,-99.99,,,-99.99,meteohub,2013-02-23 15:46:00,
2013-02-23 07:51:00,49.5,34.3,32.42,South,180,0.0,1.0,56,-99.99,,,-99.99,meteohub,2013-02-23 15:51:00,
2013-02-23 07:56:00,50.0,34.0,32.42,South,180,0.0,1.0,54,-99.99,,,-99.99,meteohub,2013-02-23 15:56:00,
2013-02-23 08:01:00,51.1,34.0,32.42,South,180,0.0,1.0,52,-99.99,,,-99.99,meteohub,2013-02-23 16:01:00,
2013-02-23 08:06:00,51.1,34.0,32.43,South,180,0.0,1.0,52,-99.99,,,-99.99,meteohub,2013-02-23 16:06:00,
2013-02-23 08:11:00,52.0,31.8,32.43,South,180,0.0,1.0,46,-99.99,,,-99.99,meteohub,2013-02-23 16:11:00,
2013-02-23 08:16:00,52.3,30.6,32.43,South,180,0.0,0.0,43,-99.99,,,-99.99,meteohub,2013-02-23 16:16:00,
2013-02-23 08:21:00,52.5,30.0,32.42,South,180,0.0,0.0,42,-99.99,,,-99.99,meteohub,2013-02-23 16:21:00,
2013-02-23 08:26:00,53.1,30.6,32.42,South,180,0.0,0.0,42,-99.99,,,-99.99,meteohub,2013-02-23 16:26:00,
2013-02-23 08:31:00,52.7,27.1,32.42,South,180,0.0,0.0,37,-99.99,,,-99.99,meteohub,2013-02-23 16:31:00,
2013-02-23 08:36:00,52.7,27.1,32.42,South,180,0.0,1.0,37,-99.99,,,-99.99,meteohub,2013-02-23 16:36:00,
2013-02-23 08:41:00,53.1,27.5,32.42,South,180,0.0,1.0,37,-99.99,,,-99.99,meteohub,2013-02-23 16:41:00,
2013-02-23 08:46:00,53.1,27.5,32.42,South,180,0.0,1.0,37,-99.99,,,-99.99,meteohub,2013-02-23 16:46:00,
2013-02-23 08:51:00,53.6,25.9,32.41,South,180,0.0,0.0,34,-99.99,,,-99.99,meteohub,2013-02-23 16:51:00,
2013-02-23 08:56:00,54.1,25.7,32.41,South,180,0.0,0.0,33,-99.99,,,-99.99,meteohub,2013-02-23 16:56:00,
2013-02-23 09:02:00,54.5,26.1,32.41,South,180,0.0,0.0,33,-99.99,,,-99.99,meteohub,2013-02-23 17:02:00,
2013-02-23 09:07:00,54.3,25.9,32.41,South,180,1.0,0.0,33,-99.99,,,-99.99,meteohub,2013-02-23 17:07:00,
2013-02-23 09:12:00,55.2,28.8,32.40,South,180,0.0,1.0,36,-99.99,,,-99.99,meteohub,2013-02-23 17:12:00,
2013-02-23 09:17:00,55.4,28.2,32.40,South,180,0.0,1.0,35,-99.99,,,-99.99,meteohub,2013-02-23 17:17:00,
2013-02-23 09:22:00,54.9,27.0,32.40,South,180,0.0,1.0,34,-99.99,,,-99.99,meteohub,2013-02-23 17:22:00,
2013-02-23 09:27:00,56.7,29.3,32.40,South,180,1.0,1.0,35,-99.99,,,-99.99,meteohub,2013-02-23 17:27:00,
2013-02-23 09:32:00,57.0,28.9,32.40,South,180,1.0,1.0,34,-99.99,,,-99.99,meteohub,2013-02-23 17:32:00,
2013-02-23 09:37:00,56.7,27.9,32.40,South,180,1.0,1.0,33,-99.99,,,-99.99,meteohub,2013-02-23 17:37:00,
2013-02-23 09:42:00,56.1,28.0,32.40,South,180,1.0,1.0,34,-99.99,,,-99.99,meteohub,2013-02-23 17:42:00,
2013-02-23 09:47:00,55.8,28.6,32.40,South,180,0.0,1.0,35,-99.99,,,-99.99,meteohub,2013-02-23 17:47:00,
2013-02-23 09:52:00,55.9,28.8,32.40,South,180,0.0,1.0,35,-99.99,,,-99.99,meteohub,2013-02-23 17:52:00,
2013-02-23 09:57:00,57.2,29.1,32.40,South,180,0.0,1.0,34,-99.99,,,-99.99,meteohub,2013-02-23 17:57:00,
2013-02-23 10:02:00,57.6,27.9,32.40,South,180,1.0,1.0,32,-99.99,,,-99.99,meteohub,2013-02-23 18:02:00,
2013-02-23 10:07:00,57.9,27.5,32.40,South,180,2.0,2.0,31,-99.99,,,-99.99,meteohub,2013-02-23 18:07:00,
2013-02-23 10:12:00,57.9,25.9,32.40,South,180,2.0,2.0,29,-99.99,,,-99.99,meteohub,2013-02-23 18:12:00,
2013-02-23 10:17:00,57.9,25.0,32.40,South,180,1.0,2.0,28,-99.99,,,-99.99,meteohub,2013-02-23 18:17:00,
2013-02-23 10:22:00,58.5,25.5,32.40,South,180,2.0,2.0,28,-99.99,,,-99.99,meteohub,2013-02-23 18:22:00,
2013-02-23 10:27:00,58.5,25.5,32.40,South,180,2.0,2.0,28,-99.99,,,-99.99,meteohub,2013-02-23 18:27:00,
2013-02-23 10:32:00,58.5,25.5,32.40,South,180,0.0,2.0,28,-99.99,,,-99.99,meteohub,2013-02-23 18:32:00,
2013-02-23 10:37:00,58.8,25.7,32.39,South,180,2.0,2.0,28,-99.99,,,-99.99,meteohub,2013-02-23 18:37:00,
2013-02-23 10:42:00,57.7,25.7,32.39,South,180,2.0,2.0,29,-99.99,,,-99.99,meteohub,2013-02-23 18:42:00,
2013-02-23 10:47:00,58.5,27.1,32.39,South,180,2.0,5.0,30,-99.99,,,-99.99,meteohub,2013-02-23 18:47:00,
2013-02-23 10:52:00,59.2,27.0,32.39,South,180,2.0,5.0,29,-99.99,,,-99.99,meteohub,2013-02-23 18:52:00,
2013-02-23 10:57:00,59.5,28.0,32.39,South,180,2.0,3.0,30,-99.99,,,-99.99,meteohub,2013-02-23 18:57:00,
2013-02-23 11:02:00,59.9,30.7,32.39,South,180,2.0,3.0,33,-99.99,,,-99.99,meteohub,2013-02-23 19:02:00,
2013-02-23 11:07:00,59.4,30.2,32.38,South,180,1.0,3.0,33,-99.99,,,-99.99,meteohub,2013-02-23 19:07:00,
2013-02-23 11:12:00,59.5,30.4,32.39,South,180,1.0,2.0,33,-99.99,,,-99.99,meteohub,2013-02-23 19:12:00,
2013-02-23 11:17:00,60.1,30.9,32.39,South,180,1.0,3.0,33,-99.99,,,-99.99,meteohub,2013-02-23 19:17:00,
2013-02-23 11:22:00,59.5,30.4,32.38,South,180,2.0,3.0,33,-99.99,,,-99.99,meteohub,2013-02-23 19:22:00,
2013-02-23 11:27:00,60.6,31.3,32.38,South,180,0.0,3.0,33,-99.99,,,-99.99,meteohub,2013-02-23 19:27:00,
2013-02-23 11:32:00,60.4,31.3,32.38,South,180,2.0,2.0,33,-99.99,,,-99.99,meteohub,2013-02-23 19:32:00,
2013-02-23 11:37:00,61.0,30.9,32.38,South,180,1.0,2.0,32,-99.99,,,-99.99,meteohub,2013-02-23 19:37:00,
2013-02-23 11:42:00,61.2,30.2,32.37,South,180,2.0,2.0,31,-99.99,,,-99.99,meteohub,2013-02-23 19:42:00,
2013-02-23 11:47:00,60.6,31.3,32.37,South,180,2.0,2.0,33,-99.99,,,-99.99,meteohub,2013-02-23 19:47:00,
2013-02-23 11:52:00,60.6,31.3,32.37,South,180,1.0,2.0,33,-99.99,,,-99.99,meteohub,2013-02-23 19:52:00,
2013-02-23 11:57:00,61.9,29.3,32.37,South,180,1.0,2.0,29,-99.99,,,-99.99,meteohub,2013-02-23 19:57:00,
2013-02-23 12:02:00,61.7,28.2,32.36,South,180,2.0,2.0,28,-99.99,,,-99.99,meteohub,2013-02-23 20:02:00,
2013-02-23 12:07:00,61.0,25.9,32.36,South,180,2.0,2.0,26,-99.99,,,-99.99,meteohub,2013-02-23 20:07:00,
2013-02-23 12:12:00,60.3,25.2,32.36,South,180,5.0,5.0,26,-99.99,,,-99.99,meteohub,2013-02-23 20:12:00,
2013-02-23 12:17:00,60.4,25.3,32.36,South,180,1.0,7.0,26,-99.99,,,-99.99,meteohub,2013-02-23 20:17:00,
2013-02-23 12:22:00,60.4,25.3,32.35,South,180,1.0,7.0,26,-99.99,,,-99.99,meteohub,2013-02-23 20:22:00,
2013-02-23 12:27:00,60.6,24.6,32.35,South,180,2.0,7.0,25,-99.99,,,-99.99,meteohub,2013-02-23 20:27:00,
2013-02-23 12:32:00,61.7,25.5,32.35,South,180,1.0,2.0,25,-99.99,,,-99.99,meteohub,2013-02-23 20:32:00,
2013-02-23 12:37:00,62.2,26.1,32.35,South,180,1.0,2.0,25,-99.99,,,-99.99,meteohub,2013-02-23 20:37:00,
2013-02-23 12:42:00,62.6,25.3,32.34,South,180,2.0,2.0,24,-99.99,,,-99.99,meteohub,2013-02-23 20:42:00,
2013-02-23 12:47:00,61.2,25.0,32.34,SW,225,6.0,7.0,25,-99.99,,,-99.99,meteohub,2013-02-23 20:47:00,
2013-02-23 12:52:00,60.8,24.8,32.33,SW,225,2.0,7.0,25,-99.99,,,-99.99,meteohub,2013-02-23 20:52:00,
2013-02-23 12:57:00,61.0,25.9,32.34,SW,225,1.0,7.0,26,-99.99,,,-99.99,meteohub,2013-02-23 20:57:00,
2013-02-23 13:02:00,60.3,26.1,32.33,SW,225,1.0,7.0,27,-99.99,,,-99.99,meteohub,2013-02-23 21:02:00,
2013-02-23 13:07:00,61.3,27.1,32.33,SW,225,2.0,7.0,27,-99.99,,,-99.99,meteohub,2013-02-23 21:07:00,
2013-02-23 13:12:00,62.4,27.1,32.33,SW,225,2.0,7.0,26,-99.99,,,-99.99,meteohub,2013-02-23 21:12:00,
2013-02-23 13:17:00,61.3,25.2,32.33,SW,225,2.0,4.0,25,-99.99,,,-99.99,meteohub,2013-02-23 21:17:00,
2013-02-23 13:22:00,60.4,26.2,32.32,SW,225,1.0,4.0,27,-99.99,,,-99.99,meteohub,2013-02-23 21:22:00,
2013-02-23 13:27:00,59.9,25.9,32.32,SW,225,1.0,4.0,27,-99.99,,,-99.99,meteohub,2013-02-23 21:27:00,
2013-02-23 13:32:00,61.5,26.2,32.32,SW,225,1.0,3.0,26,-99.99,,,-99.99,meteohub,2013-02-23 21:32:00,
2013-02-23 13:37:00,62.4,26.1,32.32,SW,225,2.0,3.0,25,-99.99,,,-99.99,meteohub,2013-02-23 21:37:00,
2013-02-23 13:42:00,61.7,26.4,32.32,SW,225,1.0,3.0,26,-99.99,,,-99.99,meteohub,2013-02-23 21:42:00,
2013-02-23 13:47:00,62.4,28.0,32.31,SW,225,1.0,2.0,27,-99.99,,,-99.99,meteohub,2013-02-23 21:47:00,
2013-02-23 13:52:00,63.0,27.5,32.31,SW,225,2.0,2.0,26,-99.99,,,-99.99,meteohub,2013-02-23 21:52:00,
2013-02-23 13:57:00,61.7,27.3,32.30,SW,225,2.0,2.0,27,-99.99,,,-99.99,meteohub,2013-02-23 21:57:00,
2013-02-23 14:02:00,62.4,28.0,32.30,SW,225,2.0,2.0,27,-99.99,,,-99.99,meteohub,2013-02-23 22:02:00,
2013-02-23 14:07:00,63.3,27.0,32.30,SW,225,2.0,2.0,25,-99.99,,,-99.99,meteohub,2013-02-23 22:07:00,
2013-02-23 14:12:00,63.1,27.7,32.30,SW,225,1.0,2.0,26,-99.99,,,-99.99,meteohub,2013-02-23 22:12:00,
2013-02-23 14:17:00,63.9,27.3,32.30,SW,225,3.0,3.0,25,-99.99,,,-99.99,meteohub,2013-02-23 22:17:00,
2013-02-23 14:22:00,61.7,27.3,32.29,SW,225,1.0,3.0,27,-99.99,,,-99.99,meteohub,2013-02-23 22:22:00,
2013-02-23 14:27:00,61.2,27.0,32.29,SW,225,1.0,3.0,27,-99.99,,,-99.99,meteohub,2013-02-23 22:27:00,
2013-02-23 14:32:00,61.7,27.3,32.29,SW,225,2.0,3.0,27,-99.99,,,-99.99,meteohub,2013-02-23 22:32:00,
2013-02-23 14:37:00,62.4,28.9,32.28,SW,225,2.0,2.0,28,-99.99,,,-99.99,meteohub,2013-02-23 22:37:00,
2013-02-23 14:42:00,61.9,26.6,32.28,SW,225,2.0,2.0,26,-99.99,,,-99.99,meteohub,2013-02-23 22:42:00,
2013-02-23 14:47:00,63.1,27.7,32.28,SW,225,1.0,2.0,26,-99.99,,,-99.99,meteohub,2013-02-23 22:47:00,
2013-02-23 14:52:00,62.2,27.9,32.27,SW,225,1.0,2.0,27,-99.99,,,-99.99,meteohub,2013-02-23 22:52:00,
2013-02-23 14:57:00,61.9,28.4,32.27,SW,225,2.0,2.0,28,-99.99,,,-99.99,meteohub,2013-02-23 22:57:00,
2013-02-23 15:02:00,62.4,28.0,32.27,SW,225,1.0,2.0,27,-99.99,,,-99.99,meteohub,2013-02-23 23:02:00,
2013-02-23 15:07:00,63.9,27.3,32.27,SW,225,1.0,2.0,25,-99.99,,,-99.99,meteohub,2013-02-23 23:07:00,
2013-02-23 15:12:00,61.9,27.5,32.27,SW,225,1.0,2.0,27,-99.99,,,-99.99,meteohub,2013-02-23 23:12:00,
2013-02-23 15:17:00,61.5,28.0,32.26,SW,225,1.0,2.0,28,-99.99,,,-99.99,meteohub,2013-02-23 23:17:00,
2013-02-23 15:23:00,61.3,28.8,32.27,SW,225,1.0,2.0,29,-99.99,,,-99.99,meteohub,2013-02-23 23:23:00,
2013-02-23 15:28:00,60.8,27.5,32.27,SW,225,2.0,2.0,28,-99.99,,,-99.99,meteohub,2013-02-23 23:28:00,
2013-02-23 15:33:00,61.9,29.3,32.27,SW,225,1.0,2.0,29,-99.99,,,-99.99,meteohub,2013-02-23 23:33:00,
2013-02-23 15:38:00,61.2,28.6,32.27,SW,225,1.0,2.0,29,-99.99,,,-99.99,meteohub,2013-02-23 23:38:00,
2013-02-23 15:43:00,61.7,30.0,32.27,SW,225,2.0,2.0,30,-99.99,,,-99.99,meteohub,2013-02-23 23:43:00,
2013-02-23 15:48:00,61.2,29.5,32.26,SW,225,1.0,2.0,30,-99.99,,,-99.99,meteohub,2013-02-23 23:48:00,
2013-02-23 15:53:00,61.3,28.8,32.26,SW,225,0.0,2.0,29,-99.99,,,-99.99,meteohub,2013-02-23 23:53:00,
2013-02-23 15:58:00,61.2,30.2,32.26,SW,225,1.0,2.0,31,-99.99,,,-99.99,meteohub,2013-02-23 23:58:00,
2013-02-23 16:03:00,62.1,30.2,32.26,SW,225,1.0,2.0,30,-99.99,,,-99.99,meteohub,2013-02-24 00:03:00,
2013-02-23 16:08:00,61.7,29.1,32.25,SW,225,1.0,2.0,29,-99.99,,,-99.99,meteohub,2013-02-24 00:08:00,
2013-02-23 16:14:00,61.2,31.1,32.26,SW,225,1.0,1.0,32,-99.99,,,-99.99,meteohub,2013-02-24 00:14:00,
2013-02-23 16:19:00,60.8,30.7,32.25,SW,225,1.0,1.0,32,-99.99,,,-99.99,meteohub,2013-02-24 00:19:00,
2013-02-23 16:24:00,61.2,31.1,32.26,SW,225,1.0,1.0,32,-99.99,,,-99.99,meteohub,2013-02-24 00:24:00,
2013-02-23 16:29:00,61.0,30.9,32.25,SW,225,1.0,1.0,32,-99.99,,,-99.99,meteohub,2013-02-24 00:29:00,
2013-02-23 16:34:00,61.5,31.5,32.25,SW,225,0.0,2.0,32,-99.99,,,-99.99,meteohub,2013-02-24 00:34:00,
2013-02-23 16:39:00,63.0,31.8,32.25,SW,225,1.0,2.0,31,-99.99,,,-99.99,meteohub,2013-02-24 00:39:00,
2013-02-23 16:44:00,64.0,32.7,32.24,SW,225,0.0,2.0,31,-99.99,,,-99.99,meteohub,2013-02-24 00:44:00,
2013-02-23 16:49:00,63.0,30.2,32.24,SW,225,1.0,2.0,29,-99.99,,,-99.99,meteohub,2013-02-24 00:49:00,
2013-02-23 16:54:00,59.7,31.3,32.24,SW,225,0.0,1.0,34,-99.99,,,-99.99,meteohub,2013-02-24 00:54:00,
2013-02-23 16:59:00,58.6,31.8,32.24,SW,225,0.0,1.0,36,-99.99,,,-99.99,meteohub,2013-02-24 00:59:00,
2013-02-23 17:04:00,57.7,32.4,32.24,SW,225,0.0,1.0,38,-99.99,,,-99.99,meteohub,2013-02-24 01:04:00,
2013-02-23 17:10:00,57.4,32.5,32.24,SW,225,0.0,2.0,39,-99.99,,,-99.99,meteohub,2013-02-24 01:10:00,
2013-02-23 17:15:00,57.0,32.9,32.25,ESE,113,0.0,2.0,40,-99.99,,,-99.99,meteohub,2013-02-24 01:15:00,
2013-02-23 17:20:00,56.1,34.0,32.25,SW,225,0.0,1.0,43,-99.99,,,-99.99,meteohub,2013-02-24 01:20:00,
2013-02-23 17:25:00,55.8,34.2,32.25,SW,225,0.0,1.0,44,-99.99,,,-99.99,meteohub,2013-02-24 01:25:00,
2013-02-23 17:30:00,55.6,34.5,32.25,SW,225,0.0,0.0,45,-99.99,,,-99.99,meteohub,2013-02-24 01:30:00,
2013-02-23 17:35:00,55.2,33.6,32.25,SW,225,0.0,0.0,44,-99.99,,,-99.99,meteohub,2013-02-24 01:35:00,
2013-02-23 17:40:00,54.9,34.0,32.25,SW,225,0.0,0.0,45,-99.99,,,-99.99,meteohub,2013-02-24 01:40:00,
2013-02-23 17:45:00,54.3,33.4,32.25,SW,225,0.0,0.0,45,-99.99,,,-99.99,meteohub,2013-02-24 01:45:00,
2013-02-23 17:50:00,54.0,34.2,32.25,SW,225,0.0,1.0,47,-99.99,,,-99.99,meteohub,2013-02-24 01:50:00,
2013-02-23 17:55:00,53.6,34.3,32.25,SW,225,1.0,1.0,48,-99.99,,,-99.99,meteohub,2013-02-24 01:55:00,
2013-02-23 18:00:00,53.2,36.1,32.26,SW,225,1.0,1.0,52,-99.99,,,-99.99,meteohub,2013-02-24 02:00:00,
2013-02-23 18:05:00,53.2,36.1,32.26,SW,225,1.0,1.0,52,-99.99,,,-99.99,meteohub,2013-02-24 02:05:00,
2013-02-23 18:11:00,52.2,36.5,32.26,SW,225,1.0,1.0,55,-99.99,,,-99.99,meteohub,2013-02-24 02:11:00,
2013-02-23 18:16:00,51.8,37.0,32.26,SW,225,1.0,1.0,57,-99.99,,,-99.99,meteohub,2013-02-24 02:16:00,
2013-02-23 18:21:00,51.4,38.5,32.26,SW,225,1.0,1.0,61,-99.99,,,-99.99,meteohub,2013-02-24 02:21:00,
2013-02-23 18:26:00,51.1,38.8,32.27,SW,225,1.0,1.0,63,-99.99,,,-99.99,meteohub,2013-02-24 02:26:00,
2013-02-23 18:31:00,50.5,38.5,32.27,SW,225,0.0,1.0,63,-99.99,,,-99.99,meteohub,2013-02-24 02:31:00,
2013-02-23 18:36:00,50.4,38.7,32.27,SW,225,1.0,1.0,64,-99.99,,,-99.99,meteohub,2013-02-24 02:36:00,
2013-02-23 18:41:00,50.2,38.8,32.27,SW,225,1.0,1.0,65,-99.99,,,-99.99,meteohub,2013-02-24 02:41:00,
2013-02-23 18:47:00,50.0,38.7,32.27,SW,225,1.0,1.0,65,-99.99,,,-99.99,meteohub,2013-02-24 02:47:00,
2013-02-23 18:52:00,49.6,39.2,32.27,SW,225,0.0,1.0,67,-99.99,,,-99.99,meteohub,2013-02-24 02:52:00,
2013-02-23 18:57:00,49.5,39.4,32.27,SW,225,0.0,1.0,68,-99.99,,,-99.99,meteohub,2013-02-24 02:57:00,
2013-02-23 19:02:00,49.1,39.4,32.28,SW,225,0.0,1.0,69,-99.99,,,-99.99,meteohub,2013-02-24 03:02:00,
2013-02-23 19:13:00,48.6,39.2,32.28,SW,225,0.0,1.0,70,-99.99,,,-99.99,meteohub,2013-02-24 03:13:00,
2013-02-23 19:19:00,48.6,39.6,32.28,SW,225,0.0,1.0,71,-99.99,,,-99.99,meteohub,2013-02-24 03:19:00,
2013-02-23 19:24:00,48.2,39.6,32.28,SW,225,0.0,0.0,72,-99.99,,,-99.99,meteohub,2013-02-24 03:24:00,
2013-02-23 19:29:00,47.8,40.3,32.29,SW,225,0.0,0.0,75,-99.99,,,-99.99,meteohub,2013-02-24 03:29:00,
2013-02-23 19:34:00,47.8,40.3,32.29,SW,225,0.0,0.0,75,-99.99,,,-99.99,meteohub,2013-02-24 03:34:00,
2013-02-23 19:39:00,47.7,40.5,32.29,SW,225,0.0,0.0,76,-99.99,,,-99.99,meteohub,2013-02-24 03:39:00,
2013-02-23 19:44:00,47.7,40.5,32.28,SW,225,0.0,0.0,76,-99.99,,,-99.99,meteohub,2013-02-24 03:44:00,
2013-02-23 19:49:00,47.5,40.3,32.28,SW,225,0.0,0.0,76,-99.99,,,-99.99,meteohub,2013-02-24 03:49:00,
2013-02-23 19:54:00,47.1,40.3,32.27,SW,225,0.0,0.0,77,-99.99,,,-99.99,meteohub,2013-02-24 03:54:00,
2013-02-23 19:59:00,46.9,40.1,32.27,SW,225,0.0,1.0,77,-99.99,,,-99.99,meteohub,2013-02-24 03:59:00,
2013-02-23 20:04:00,46.9,40.1,32.28,SW,225,0.0,1.0,77,-99.99,,,-99.99,meteohub,2013-02-24 04:04:00,
2013-02-23 20:09:00,46.6,40.1,32.28,SW,225,0.0,1.0,78,-99.99,,,-99.99,meteohub,2013-02-24 04:09:00,
2013-02-23 20:14:00,46.2,39.7,32.28,SW,225,0.0,1.0,78,-99.99,,,-99.99,meteohub,2013-02-24 04:14:00,
2013-02-23 20:19:00,45.5,39.0,32.29,SW,225,0.0,0.0,78,-99.99,,,-99.99,meteohub,2013-02-24 04:19:00,
2013-02-23 20:24:00,45.0,38.5,32.28,SW,225,0.0,0.0,78,-99.99,,,-99.99,meteohub,2013-02-24 04:24:00,
2013-02-23 20:29:00,44.8,39.0,32.28,SW,225,0.0,0.0,80,-99.99,,,-99.99,meteohub,2013-02-24 04:29:00,
2013-02-23 20:35:00,44.8,39.4,32.28,SW,225,0.0,0.0,81,-99.99,,,-99.99,meteohub,2013-02-24 04:35:00,
2013-02-23 20:40:00,45.1,39.9,32.28,SW,225,0.0,0.0,82,-99.99,,,-99.99,meteohub,2013-02-24 04:40:00,
2013-02-23 20:45:00,45.5,40.6,32.28,SW,225,0.0,1.0,83,-99.99,,,-99.99,meteohub,2013-02-24 04:45:00,
2013-02-23 20:50:00,45.3,40.1,32.29,SW,225,0.0,1.0,82,-99.99,,,-99.99,meteohub,2013-02-24 04:50:00,
2013-02-23 20:55:00,44.8,39.4,32.29,SW,225,0.0,1.0,81,-99.99,,,-99.99,meteohub,2013-02-24 04:55:00,
2013-02-23 21:00:00,44.6,39.4,32.29,SW,225,0.0,0.0,82,-99.99,,,-99.99,meteohub,2013-02-24 05:00:00,
2013-02-23 21:01:00,44.6,39.4,32.29,SW,225,0.0,0.0,82,-99.99,,,-99.99,meteohub,2013-02-24 05:01:00,
2013-02-23 21:06:00,44.8,39.4,32.29,SW,225,0.0,0.0,81,-99.99,,,-99.99,meteohub,2013-02-24 05:06:00,
2013-02-23 21:11:00,45.9,38.7,32.29,SW,225,1.0,0.0,76,-99.99,,,-99.99,meteohub,2013-02-24 05:11:00,
2013-02-23 21:16:00,46.8,36.7,32.29,SW,225,1.0,1.0,68,-99.99,,,-99.99,meteohub,2013-02-24 05:16:00,
2013-02-23 21:21:00,47.1,35.2,32.30,SW,225,1.0,1.0,63,-99.99,,,-99.99,meteohub,2013-02-24 05:21:00,
2013-02-23 21:26:00,47.8,33.8,32.29,SW,225,0.0,1.0,58,-99.99,,,-99.99,meteohub,2013-02-24 05:26:00,
2013-02-23 21:31:00,48.0,33.1,32.29,SW,225,2.0,2.0,56,-99.99,,,-99.99,meteohub,2013-02-24 05:31:00,
2013-02-23 21:36:00,48.2,32.4,32.28,SW,225,1.0,2.0,54,-99.99,,,-99.99,meteohub,2013-02-24 05:36:00,
2013-02-23 21:41:00,48.4,32.5,32.28,SW,225,1.0,2.0,54,-99.99,,,-99.99,meteohub,2013-02-24 05:41:00,
2013-02-23 21:47:00,48.2,32.4,32.28,SW,225,1.0,2.0,54,-99.99,,,-99.99,meteohub,2013-02-24 05:47:00,
2013-02-23 21:52:00,48.0,32.5,32.28,SW,225,0.0,2.0,55,-99.99,,,-99.99,meteohub,2013-02-24 05:52:00,
2013-02-23 21:57:00,47.7,32.4,32.28,SW,225,0.0,2.0,55,-99.99,,,-99.99,meteohub,2013-02-24 05:57:00,
2013-02-23 22:02:00,47.5,32.2,32.28,SW,225,0.0,1.0,55,-99.99,,,-99.99,meteohub,2013-02-24 06:02:00,
2013-02-23 22:07:00,47.5,32.2,32.28,SW,225,0.0,2.0,55,-99.99,,,-99.99,meteohub,2013-02-24 06:07:00,
2013-02-23 22:12:00,46.0,31.6,32.28,SW,225,0.0,2.0,57,-99.99,,,-99.99,meteohub,2013-02-24 06:12:00,
2013-02-23 22:17:00,45.7,31.8,32.28,SW,225,0.0,0.0,58,-99.99,,,-99.99,meteohub,2013-02-24 06:17:00,
2013-02-23 22:22:00,45.9,32.0,32.28,SW,225,0.0,0.0,58,-99.99,,,-99.99,meteohub,2013-02-24 06:22:00,
2013-02-23 22:27:00,46.4,32.0,32.29,SW,225,1.0,0.0,57,-99.99,,,-99.99,meteohub,2013-02-24 06:27:00,
2013-02-23 22:32:00,46.2,31.8,32.29,SW,225,1.0,0.0,57,-99.99,,,-99.99,meteohub,2013-02-24 06:32:00,
2013-02-23 22:37:00,46.2,31.8,32.29,SW,225,0.0,2.0,57,-99.99,,,-99.99,meteohub,2013-02-24 06:37:00,
2013-02-23 22:42:00,44.6,32.4,32.28,SW,225,0.0,2.0,62,-99.99,,,-99.99,meteohub,2013-02-24 06:42:00,
2013-02-23 22:47:00,44.2,33.6,32.28,SW,225,0.0,1.0,66,-99.99,,,-99.99,meteohub,2013-02-24 06:47:00,
2013-02-23 22:52:00,44.1,34.2,32.28,SW,225,1.0,0.0,68,-99.99,,,-99.99,meteohub,2013-02-24 06:52:00,
2013-02-23 22:57:00,44.1,34.9,32.29,SW,225,1.0,1.0,70,-99.99,,,-99.99,meteohub,2013-02-24 06:57:00,
2013-02-23 23:02:00,43.9,35.1,32.29,SW,225,1.0,2.0,71,-99.99,,,-99.99,meteohub,2013-02-24 07:02:00,
2013-02-23 23:07:00,43.7,35.2,32.30,SW,225,0.0,2.0,72,-99.99,,,-99.99,meteohub,2013-02-24 07:07:00,
2013-02-23 23:12:00,43.5,35.1,32.29,SW,225,0.0,2.0,72,-99.99,,,-99.99,meteohub,2013-02-24 07:12:00,
2013-02-23 23:17:00,43.3,34.9,32.29,SW,225,0.0,2.0,72,-99.99,,,-99.99,meteohub,2013-02-24 07:17:00,
2013-02-23 23:22:00,43.3,34.9,32.29,SW,225,2.0,2.0,72,-99.99,,,-99.99,meteohub,2013-02-24 07:22:00,
2013-02-23 23:27:00,43.3,34.9,32.29,SW,225,0.0,2.0,72,-99.99,,,-99.99,meteohub,2013-02-24 07:27:00,
2013-02-23 23:32:00,43.2,34.7,32.29,SW,225,0.0,2.0,72,-99.99,,,-99.99,meteohub,2013-02-24 07:32:00,
2013-02-23 23:37:00,43.0,34.5,32.30,SW,225,0.0,2.0,72,-99.99,,,-99.99,meteohub,2013-02-24 07:37:00,
2013-02-23 23:42:00,42.8,34.3,32.30,SW,225,0.0,0.0,72,-99.99,,,-99.99,meteohub,2013-02-24 07:42:00,
2013-02-23 23:47:00,42.8,34.3,32.30,SW,225,1.0,0.0,72,-99.99,,,-99.99,meteohub,2013-02-24 07:47:00,
2013-02-23 23:52:00,43.0,34.5,32.30,SW,225,0.0,1.0,72,-99.99,,,-99.99,meteohub,2013-02-24 07:52:00,
2013-02-23 23:57:00,42.8,34.3,32.31,SW,225,0.0,1.0,72,-99.99,,,-99.99,meteohub,2013-02-24 07:57:00,